Time,TemperatureF,DewpointF,PressureIn,WindDirection,WindDirectionDegrees,WindSpeedMPH,WindSpeedGustMPH,Humidity,HourlyPrecipIn,Conditions,Clouds,dailyrainin,SoftwareType,DateUTC
2013-03-18 00:00:00,26.9,20.4,30.29,North,0,0.0,0.0,76,0.00,,---,0.00,VWS V14.01,2013-03-18 04:00:00,
2013-03-18 00:15:00,26.3,20.4,30.30,North,0,0.0,0.0,78,0.00,,---,0.00,VWS V14.01,2013-03-18 04:15:00,
2013-03-18 00:30:00,25.7,20.1,30.30,North,0,0.0,0.0,79,0.00,,---,0.00,VWS V14.01,2013-03-18 04:30:00,
2013-03-18 00:45:00,25.1,19.8,30.30,North,0,0.0,0.0,80,0.00,,---,0.00,VWS V14.01,2013-03-18 04:45:00,
2013-03-18 01:00:00,24.8,19.8,30.30,North,0,0.0,0.0,81,0.00,,---,0.00,VWS V14.01,2013-03-18 05:00:00,
2013-03-18 01:15:00,24.4,19.7,30.30,West,270,0.0,1.0,82,0.00,,---,0.00,VWS V14.01,2013-03-18 05:15:00,
2013-03-18 01:30:00,23.9,19.5,30.30,West,270,0.0,0.0,83,0.00,,---,0.00,VWS V14.01,2013-03-18 05:30:00,
2013-03-18 01:45:00,23.3,19.2,30.30,West,270,0.0,0.0,84,0.00,,---,0.00,VWS V14.01,2013-03-18 05:45:00,
2013-03-18 02:00:00,23.5,19.4,30.30,West,270,0.0,1.0,84,0.00,,---,0.00,VWS V14.01,2013-03-18 06:00:00,
2013-03-18 02:15:00,23.0,18.6,30.32,West,270,0.0,0.0,83,0.00,,---,0.00,VWS V14.01,2013-03-18 06:15:00,
2013-03-18 02:30:00,22.7,18.3,30.32,West,270,0.0,0.0,83,0.00,,---,0.00,VWS V14.01,2013-03-18 06:30:00,
2013-03-18 02:45:00,22.4,18.0,30.33,West,270,0.0,0.0,83,0.00,,---,0.00,VWS V14.01,2013-03-18 06:45:00,
2013-03-18 03:00:00,22.2,17.8,30.34,West,270,0.0,1.0,83,0.00,,---,0.00,VWS V14.01,2013-03-18 07:00:00,
2013-03-18 03:15:00,22.1,17.7,30.34,West,270,0.0,1.0,83,0.00,,---,0.00,VWS V14.01,2013-03-18 07:15:00,
2013-03-18 03:30:00,21.6,17.2,30.34,West,270,0.0,0.0,83,0.00,,---,0.00,VWS V14.01,2013-03-18 07:30:00,
2013-03-18 03:45:00,21.4,17.3,30.34,West,270,0.0,0.0,84,0.00,,---,0.00,VWS V14.01,2013-03-18 07:45:00,
2013-03-18 04:00:00,21.1,17.3,30.35,West,270,0.0,0.0,85,0.00,,---,0.00,VWS V14.01,2013-03-18 08:00:00,
2013-03-18 04:15:00,20.8,17.0,30.34,West,270,0.0,0.0,85,0.00,,---,0.00,VWS V14.01,2013-03-18 08:15:00,
2013-03-18 04:30:00,20.5,17.0,30.35,West,270,0.0,0.0,86,0.00,,---,0.00,VWS V14.01,2013-03-18 08:30:00,
2013-03-18 04:45:00,20.5,17.2,30.35,West,270,0.0,0.0,87,0.00,,---,0.00,VWS V14.01,2013-03-18 08:45:00,
2013-03-18 05:15:00,21.0,17.2,30.36,West,275,0.0,0.0,85,0.00,,---,0.00,VWS V14.01,2013-03-18 09:15:00,
2013-03-18 05:16:00,21.0,17.2,30.36,West,275,0.0,0.0,85,0.00,,---,0.00,VWS V14.01,2013-03-18 09:16:00,
2013-03-18 05:20:00,20.8,17.0,30.36,West,275,0.0,0.0,85,0.00,,---,0.00,VWS V14.01,2013-03-18 09:20:00,
2013-03-18 05:22:00,20.8,16.7,30.36,West,275,0.0,0.0,84,0.00,,---,0.00,VWS V14.01,2013-03-18 09:22:00,
2013-03-18 05:26:00,20.6,16.5,30.36,West,275,0.0,0.0,84,0.00,,---,0.00,VWS V14.01,2013-03-18 09:26:00,
2013-03-18 05:28:00,20.6,16.3,30.35,West,275,0.0,0.0,83,0.00,,---,0.00,VWS V14.01,2013-03-18 09:28:00,
2013-03-18 05:32:00,20.6,16.3,30.35,West,275,0.0,0.0,83,0.00,,---,0.00,VWS V14.01,2013-03-18 09:32:00,
2013-03-18 05:38:00,20.6,16.3,30.36,West,275,0.0,0.0,83,0.00,,---,0.00,VWS V14.01,2013-03-18 09:38:00,
2013-03-18 05:40:00,20.6,16.3,30.36,West,275,0.0,0.0,83,0.00,,---,0.00,VWS V14.01,2013-03-18 09:40:00,
2013-03-18 05:44:00,20.8,16.7,30.36,West,275,0.0,0.0,84,0.00,,---,0.00,VWS V14.01,2013-03-18 09:44:00,
2013-03-18 05:48:00,21.0,16.9,30.36,West,275,0.0,0.0,84,0.00,,---,0.00,VWS V14.01,2013-03-18 09:48:00,
2013-03-18 05:53:00,21.3,17.2,30.37,West,275,0.0,1.0,84,0.00,,---,0.00,VWS V14.01,2013-03-18 09:53:00,
2013-03-18 05:57:00,21.4,17.3,30.37,West,275,0.0,1.0,84,0.00,,---,0.00,VWS V14.01,2013-03-18 09:57:00,
2013-03-18 05:59:00,21.6,17.5,30.37,West,275,0.0,1.0,84,0.00,,---,0.00,VWS V14.01,2013-03-18 09:59:00,
2013-03-18 06:03:00,21.9,17.8,30.37,West,275,0.0,1.0,84,0.00,,---,0.00,VWS V14.01,2013-03-18 10:03:00,
2013-03-18 06:05:00,22.2,17.8,30.37,ENE,57,0.0,2.0,83,0.00,,---,0.00,VWS V14.01,2013-03-18 10:05:00,
2013-03-18 06:07:00,22.9,18.0,30.37,East,90,0.0,2.0,81,0.00,,---,0.00,VWS V14.01,2013-03-18 10:07:00,
2013-03-18 06:11:00,24.4,16.7,30.37,East,98,0.0,3.0,72,0.00,,---,0.00,VWS V14.01,2013-03-18 10:11:00,
2013-03-18 06:15:00,25.6,15.5,30.37,ENE,57,0.0,3.0,65,0.00,,---,0.00,VWS V14.01,2013-03-18 10:15:00,
2013-03-18 06:19:00,26.0,14.8,30.37,ENE,68,0.0,2.0,62,0.00,,---,0.00,VWS V14.01,2013-03-18 10:19:00,
2013-03-18 06:21:00,26.3,14.3,30.37,East,98,1.0,2.0,60,0.00,,---,0.00,VWS V14.01,2013-03-18 10:21:00,
2013-03-18 06:23:00,26.4,14.0,30.36,East,98,0.0,2.0,59,0.00,,---,0.00,VWS V14.01,2013-03-18 10:23:00,
2013-03-18 06:25:00,26.4,13.6,30.37,East,92,2.0,2.0,58,0.00,,---,0.00,VWS V14.01,2013-03-18 10:25:00,
2013-03-18 06:30:00,26.7,12.7,30.36,East,80,0.0,2.0,55,0.00,,---,0.00,VWS V14.01,2013-03-18 10:30:00,
2013-03-18 06:35:00,26.7,12.7,30.36,East,80,0.0,1.0,55,0.00,,---,0.00,VWS V14.01,2013-03-18 10:35:00,
2013-03-18 06:39:00,26.7,12.3,30.37,East,80,0.0,3.0,54,0.00,,---,0.00,VWS V14.01,2013-03-18 10:39:00,
2013-03-18 06:41:00,26.9,12.1,30.37,East,80,1.0,3.0,53,0.00,,---,0.00,VWS V14.01,2013-03-18 10:41:00,
2013-03-18 06:45:00,26.9,12.1,30.36,East,80,0.0,3.0,53,0.00,,---,0.00,VWS V14.01,2013-03-18 10:45:00,
2013-03-18 06:47:00,26.9,11.2,30.36,NE,52,5.0,5.0,51,0.00,,---,0.00,VWS V14.01,2013-03-18 10:47:00,
2013-03-18 06:49:00,27.0,10.9,30.37,ENE,57,2.0,7.0,50,0.00,,---,0.00,VWS V14.01,2013-03-18 10:49:00,
2013-03-18 06:53:00,27.2,10.6,30.37,NE,46,2.0,7.0,49,0.00,,---,0.00,VWS V14.01,2013-03-18 10:53:00,
2013-03-18 06:57:00,27.2,11.0,30.37,ENE,74,2.0,7.0,50,0.00,,---,0.00,VWS V14.01,2013-03-18 10:57:00,
2013-03-18 06:59:00,27.2,11.0,30.38,ESE,105,1.0,7.0,50,0.00,,---,0.00,VWS V14.01,2013-03-18 10:59:00,
2013-03-18 07:00:00,27.2,11.0,30.37,ESE,106,1.0,7.0,50,0.00,,---,0.00,VWS V14.01,2013-03-18 11:00:00,
2013-03-18 07:03:00,27.2,11.0,30.37,ESE,106,0.0,2.0,50,0.00,,---,0.00,VWS V14.01,2013-03-18 11:03:00,
2013-03-18 07:15:00,27.2,11.0,30.38,ESE,112,1.0,3.0,50,0.00,,---,0.00,VWS V14.01,2013-03-18 11:15:00,
2013-03-18 07:30:00,27.3,10.7,30.38,NE,45,1.0,7.0,49,0.00,,---,0.00,VWS V14.01,2013-03-18 11:30:00,
2013-03-18 07:45:00,27.3,10.7,30.37,ENE,68,2.0,6.0,49,0.00,,---,0.00,VWS V14.01,2013-03-18 11:45:00,
2013-03-18 08:00:00,27.5,10.4,30.37,ENE,68,2.0,6.0,48,0.00,,---,0.00,VWS V14.01,2013-03-18 12:00:00,
2013-03-18 08:15:00,27.6,10.5,30.37,ENE,68,2.0,6.0,48,0.00,,---,0.00,VWS V14.01,2013-03-18 12:15:00,
2013-03-18 08:30:00,27.8,10.7,30.37,East,90,1.0,6.0,48,0.00,,---,0.00,VWS V14.01,2013-03-18 12:30:00,
2013-03-18 08:45:00,27.9,10.3,30.37,ESE,112,2.0,6.0,47,0.00,,---,0.00,VWS V14.01,2013-03-18 12:45:00,
2013-03-18 09:00:00,28.4,11.2,30.37,ENE,68,1.0,7.0,48,0.00,,---,0.00,VWS V14.01,2013-03-18 13:00:00,
2013-03-18 09:15:00,28.8,12.1,30.38,East,90,1.0,5.0,49,0.00,,---,0.00,VWS V14.01,2013-03-18 13:15:00,
2013-03-18 09:30:00,29.1,11.9,30.39,East,90,1.0,4.0,48,0.00,,---,0.00,VWS V14.01,2013-03-18 13:30:00,
2013-03-18 09:45:00,29.7,12.4,30.38,ENE,68,2.0,6.0,48,0.00,,---,0.00,VWS V14.01,2013-03-18 13:45:00,
2013-03-18 10:00:00,30.4,13.5,30.36,ENE,68,2.0,11.0,49,0.00,,---,0.00,VWS V14.01,2013-03-18 14:00:00,
2013-03-18 10:15:00,31.5,14.1,30.35,ENE,68,2.0,9.0,48,0.00,,---,0.00,VWS V14.01,2013-03-18 14:15:00,
2013-03-18 10:30:00,32.1,15.1,30.35,ENE,68,3.0,9.0,49,0.00,,---,0.00,VWS V14.01,2013-03-18 14:30:00,
2013-03-18 10:45:00,32.9,16.3,30.35,East,90,4.0,11.0,50,0.00,,---,0.00,VWS V14.01,2013-03-18 14:45:00,
2013-03-18 11:00:00,34.0,17.8,30.34,East,90,3.0,12.0,51,0.00,,---,0.00,VWS V14.01,2013-03-18 15:00:00,
2013-03-18 11:15:00,34.9,19.1,30.34,East,90,4.0,13.0,52,0.00,,---,0.00,VWS V14.01,2013-03-18 15:15:00,
2013-03-18 11:30:00,34.9,20.4,30.33,East,90,4.0,12.0,55,0.00,,---,0.00,VWS V14.01,2013-03-18 15:30:00,
2013-03-18 11:45:00,35.5,21.4,30.32,East,90,4.0,12.0,56,0.00,,---,0.00,VWS V14.01,2013-03-18 15:45:00,
2013-03-18 12:00:00,35.2,20.7,30.32,East,90,5.0,14.0,55,0.00,,---,0.00,VWS V14.01,2013-03-18 16:00:00,
2013-03-18 12:15:00,35.8,21.6,30.31,East,90,3.0,10.0,56,0.00,,---,0.00,VWS V14.01,2013-03-18 16:15:00,
2013-03-18 12:30:00,36.0,23.1,30.30,East,90,3.0,10.0,59,0.00,,---,0.00,VWS V14.01,2013-03-18 16:30:00,
2013-03-18 12:45:00,36.2,24.1,30.29,East,90,3.0,11.0,61,0.00,,---,0.00,VWS V14.01,2013-03-18 16:45:00,
2013-03-18 13:00:00,35.9,23.4,30.28,East,90,4.0,13.0,60,0.00,,---,0.00,VWS V14.01,2013-03-18 17:00:00,
2013-03-18 13:15:00,35.3,24.0,30.27,East,90,5.0,16.0,63,0.00,,---,0.00,VWS V14.01,2013-03-18 17:15:00,
2013-03-18 13:30:00,34.7,23.8,30.26,East,90,5.0,14.0,64,0.00,,---,0.00,VWS V14.01,2013-03-18 17:30:00,
2013-03-18 13:45:00,34.1,24.0,30.26,East,90,5.0,16.0,66,0.00,,---,0.00,VWS V14.01,2013-03-18 17:45:00,
2013-03-18 14:00:00,34.3,24.1,30.25,East,90,4.0,14.0,66,0.00,,---,0.00,VWS V14.01,2013-03-18 18:00:00,
2013-03-18 14:15:00,34.0,24.2,30.25,East,90,3.0,11.0,67,0.00,,---,0.00,VWS V14.01,2013-03-18 18:15:00,
2013-03-18 14:30:00,33.8,24.4,30.24,ENE,68,4.0,14.0,68,0.00,,---,0.00,VWS V14.01,2013-03-18 18:30:00,
2013-03-18 14:45:00,33.5,24.4,30.23,East,90,4.0,11.0,69,0.00,,---,0.00,VWS V14.01,2013-03-18 18:45:00,
2013-03-18 15:00:00,33.5,24.8,30.22,East,90,4.0,12.0,70,0.00,,---,0.00,VWS V14.01,2013-03-18 19:00:00,
2013-03-18 15:15:00,33.4,24.7,30.22,East,90,4.0,10.0,70,0.00,,---,0.00,VWS V14.01,2013-03-18 19:15:00,
2013-03-18 15:30:00,33.4,25.0,30.23,East,90,3.0,10.0,71,0.00,,---,0.00,VWS V14.01,2013-03-18 19:30:00,
2013-03-18 15:45:00,33.2,24.8,30.22,East,90,3.0,12.0,71,0.00,,---,0.00,VWS V14.01,2013-03-18 19:45:00,
2013-03-18 16:00:00,32.5,25.8,30.21,East,90,4.0,15.0,76,0.00,,---,0.00,VWS V14.01,2013-03-18 20:00:00,
2013-03-18 16:15:00,32.2,26.1,30.19,East,90,2.0,9.0,78,0.00,,---,0.00,VWS V14.01,2013-03-18 20:15:00,
2013-03-18 16:30:00,31.9,26.7,30.18,East,90,1.0,7.0,81,0.00,,---,0.00,VWS V14.01,2013-03-18 20:30:00,
2013-03-18 16:45:00,31.8,27.2,30.17,East,90,3.0,10.0,83,0.00,,---,0.00,VWS V14.01,2013-03-18 20:45:00,
2013-03-18 17:00:00,31.6,27.3,30.18,East,90,1.0,6.0,84,0.00,,---,0.00,VWS V14.01,2013-03-18 21:00:00,
2013-03-18 17:15:00,31.5,27.5,30.17,East,90,2.0,7.0,85,0.00,,---,0.00,VWS V14.01,2013-03-18 21:15:00,
2013-03-18 17:30:00,31.3,27.9,30.15,East,90,2.0,10.0,87,0.00,,---,0.00,VWS V14.01,2013-03-18 21:30:00,
2013-03-18 17:45:00,31.2,28.1,30.11,East,90,4.0,13.0,88,0.00,,---,0.00,VWS V14.01,2013-03-18 21:45:00,
2013-03-18 18:13:00,31.0,28.4,30.11,ENE,76,9.0,10.0,90,0.00,,---,0.00,VWS V14.01,2013-03-18 22:13:00,
2013-03-18 18:17:00,31.0,28.4,30.11,East,85,4.0,7.0,90,0.00,,---,0.00,VWS V14.01,2013-03-18 22:17:00,
2013-03-18 18:19:00,31.2,28.6,30.11,East,90,5.0,11.0,90,0.00,,---,0.00,VWS V14.01,2013-03-18 22:19:00,
2013-03-18 18:23:00,31.2,28.6,30.11,East,93,2.0,11.0,90,0.00,,---,0.00,VWS V14.01,2013-03-18 22:23:00,
2013-03-18 18:25:00,31.2,28.6,30.10,NE,56,7.0,11.0,90,0.00,,---,0.00,VWS V14.01,2013-03-18 22:25:00,
2013-03-18 18:27:00,31.2,28.6,30.11,East,90,1.0,11.0,90,0.00,,---,0.00,VWS V14.01,2013-03-18 22:27:00,
2013-03-18 18:29:00,31.2,28.6,30.11,NE,48,4.0,11.0,90,0.00,,---,0.00,VWS V14.01,2013-03-18 22:29:00,
2013-03-18 18:31:00,31.2,28.6,30.11,NE,49,3.0,5.0,90,0.00,,---,0.00,VWS V14.01,2013-03-18 22:31:00,
2013-03-18 18:35:00,31.2,28.9,30.11,ENE,73,3.0,9.0,91,0.00,,---,0.00,VWS V14.01,2013-03-18 22:35:00,
2013-03-18 18:39:00,31.3,29.0,30.11,East,83,0.0,9.0,91,0.00,,---,0.00,VWS V14.01,2013-03-18 22:39:00,
2013-03-18 18:41:00,31.3,29.0,30.11,ENE,60,2.0,9.0,91,0.00,,---,0.00,VWS V14.01,2013-03-18 22:41:00,
2013-03-18 18:43:00,31.3,29.2,30.11,ESE,105,8.0,9.0,92,0.00,,---,0.00,VWS V14.01,2013-03-18 22:43:00,
2013-03-18 18:49:00,31.3,29.2,30.11,ENE,75,1.0,10.0,92,0.00,,---,0.00,VWS V14.01,2013-03-18 22:49:00,
2013-03-18 18:51:00,31.3,29.2,30.11,East,93,2.0,10.0,92,0.00,,---,0.00,VWS V14.01,2013-03-18 22:51:00,
2013-03-18 18:53:00,31.3,29.2,30.11,East,99,0.0,10.0,92,0.00,,---,0.00,VWS V14.01,2013-03-18 22:53:00,
2013-03-18 18:57:00,31.3,29.2,30.11,ENE,57,1.0,10.0,92,0.00,,---,0.00,VWS V14.01,2013-03-18 22:57:00,
2013-03-18 18:59:00,31.3,29.5,30.11,ENE,57,3.0,10.0,93,0.00,,---,0.00,VWS V14.01,2013-03-18 22:59:00,
2013-03-18 19:00:00,31.5,29.7,30.11,ENE,65,2.0,10.0,93,0.00,,---,0.00,VWS V14.01,2013-03-18 23:00:00,
2013-03-18 19:03:00,31.5,29.7,30.11,East,92,2.0,3.0,93,0.00,,---,0.00,VWS V14.01,2013-03-18 23:03:00,
2013-03-18 19:05:00,31.5,29.7,30.10,East,101,5.0,5.0,93,0.00,,---,0.00,VWS V14.01,2013-03-18 23:05:00,
2013-03-18 19:11:00,31.5,29.7,30.10,ENE,70,3.0,5.0,93,0.00,,---,0.00,VWS V14.01,2013-03-18 23:11:00,
2013-03-18 19:13:00,31.5,29.7,30.10,East,98,0.0,5.0,93,0.00,,---,0.00,VWS V14.01,2013-03-18 23:13:00,
2013-03-18 19:15:00,31.6,29.8,30.10,ENE,71,3.0,5.0,93,0.00,,---,0.00,VWS V14.01,2013-03-18 23:15:00,
2013-03-18 19:17:00,31.6,29.8,30.10,ENE,71,1.0,8.0,93,0.00,,---,0.00,VWS V14.01,2013-03-18 23:17:00,
2013-03-18 19:23:00,31.6,30.1,30.10,NE,46,2.0,8.0,94,0.00,,---,0.00,VWS V14.01,2013-03-18 23:23:00,
2013-03-18 19:29:00,31.8,30.3,30.09,East,94,0.0,8.0,94,0.00,,---,0.00,VWS V14.01,2013-03-18 23:29:00,
2013-03-18 19:30:00,31.8,30.3,30.10,East,94,2.0,8.0,94,0.00,,---,0.00,VWS V14.01,2013-03-18 23:30:00,
2013-03-18 19:33:00,31.8,30.3,30.10,South,182,0.0,3.0,94,0.00,,---,0.00,VWS V14.01,2013-03-18 23:33:00,
2013-03-18 19:39:00,31.8,30.3,30.10,East,86,1.0,6.0,94,0.00,,---,0.00,VWS V14.01,2013-03-18 23:39:00,
2013-03-18 19:44:00,31.9,30.4,30.09,East,86,0.0,6.0,94,0.00,,---,0.00,VWS V14.01,2013-03-18 23:44:00,
2013-03-18 19:45:00,31.9,30.4,30.10,East,86,0.0,6.0,94,0.00,,---,0.00,VWS V14.01,2013-03-18 23:45:00,
2013-03-18 19:50:00,31.9,30.4,30.09,East,84,1.0,7.0,94,0.00,,---,0.00,VWS V14.01,2013-03-18 23:50:00,
2013-03-18 19:52:00,31.9,30.4,30.09,ENE,60,1.0,7.0,94,0.00,,---,0.00,VWS V14.01,2013-03-18 23:52:00,
2013-03-18 19:54:00,31.9,30.4,30.09,ENE,72,1.0,7.0,94,0.00,,---,0.00,VWS V14.01,2013-03-18 23:54:00,
2013-03-18 20:00:00,32.1,30.8,30.09,East,86,1.0,7.0,95,0.00,,---,0.00,VWS V14.01,2013-03-19 00:00:00,
2013-03-18 20:04:00,32.1,30.8,30.09,East,82,4.0,6.0,95,0.00,,---,0.00,VWS V14.01,2013-03-19 00:04:00,
2013-03-18 20:06:00,32.1,30.8,30.08,East,89,1.0,6.0,95,0.00,,---,0.00,VWS V14.01,2013-03-19 00:06:00,
2013-03-18 20:10:00,32.2,30.9,30.08,East,97,4.0,6.0,95,0.00,,---,0.00,VWS V14.01,2013-03-19 00:10:00,
2013-03-18 20:12:00,32.2,30.9,30.08,East,88,0.0,6.0,95,0.00,,---,0.00,VWS V14.01,2013-03-19 00:12:00,
2013-03-18 20:15:00,32.2,30.9,30.08,ESE,123,1.0,6.0,95,0.00,,---,0.00,VWS V14.01,2013-03-19 00:15:00,
2013-03-18 20:18:00,32.2,30.9,30.08,ENE,76,2.0,4.0,95,0.00,,---,0.00,VWS V14.01,2013-03-19 00:18:00,
2013-03-18 20:22:00,32.2,30.9,30.08,East,79,0.0,6.0,95,0.00,,---,0.00,VWS V14.01,2013-03-19 00:22:00,
2013-03-18 20:26:00,32.4,31.1,30.08,East,97,2.0,6.0,95,0.00,,---,0.00,VWS V14.01,2013-03-19 00:26:00,
2013-03-18 20:28:00,32.4,31.1,30.08,East,98,1.0,6.0,95,0.00,,---,0.00,VWS V14.01,2013-03-19 00:28:00,
2013-03-18 20:32:00,32.4,31.1,30.08,East,88,2.0,4.0,95,0.00,,---,0.00,VWS V14.01,2013-03-19 00:32:00,
2013-03-18 20:34:00,32.4,31.1,30.07,ESE,115,2.0,4.0,95,0.00,,---,0.00,VWS V14.01,2013-03-19 00:34:00,
2013-03-18 20:36:00,32.4,31.1,30.07,NE,56,3.0,4.0,95,0.00,,---,0.00,VWS V14.01,2013-03-19 00:36:00,
2013-03-18 20:38:00,32.4,31.1,30.07,East,93,0.0,10.0,95,0.00,,---,0.00,VWS V14.01,2013-03-19 00:38:00,
2013-03-18 20:42:00,32.4,31.1,30.07,East,96,2.0,10.0,95,0.00,,---,0.00,VWS V14.01,2013-03-19 00:42:00,
2013-03-18 20:44:00,32.4,31.1,30.07,ENE,77,4.0,10.0,95,0.00,,---,0.00,VWS V14.01,2013-03-19 00:44:00,
2013-03-18 20:45:00,32.4,31.1,30.07,East,101,0.0,10.0,95,0.00,,---,0.00,VWS V14.01,2013-03-19 00:45:00,
2013-03-18 20:50:00,32.4,31.1,30.07,East,83,4.0,6.0,95,0.00,,---,0.00,VWS V14.01,2013-03-19 00:50:00,
2013-03-18 20:59:00,32.4,31.4,30.06,East,84,2.0,6.0,96,0.00,,---,0.00,VWS V14.01,2013-03-19 00:59:00,
2013-03-18 21:00:00,32.4,31.4,30.06,ESE,108,0.0,7.0,96,0.00,,---,0.00,VWS V14.01,2013-03-19 01:00:00,
2013-03-18 21:01:00,32.4,31.4,30.06,East,98,2.0,2.0,96,0.00,,---,0.00,VWS V14.01,2013-03-19 01:01:00,
2013-03-18 21:05:00,32.4,31.4,30.05,ESE,102,1.0,7.0,96,0.00,,---,0.00,VWS V14.01,2013-03-19 01:05:00,
2013-03-18 21:07:00,32.5,31.5,30.06,East,80,3.0,11.0,96,0.00,,---,0.00,VWS V14.01,2013-03-19 01:07:00,
2013-03-18 21:15:00,32.5,31.5,30.05,East,90,3.0,11.0,96,0.00,,---,0.00,VWS V14.01,2013-03-19 01:15:00,
2013-03-18 21:30:00,32.7,31.4,30.04,East,90,3.0,9.0,95,0.00,,---,0.00,VWS V14.01,2013-03-19 01:30:00,
2013-03-18 21:45:00,32.9,31.6,30.04,East,90,2.0,9.0,95,0.00,,---,0.00,VWS V14.01,2013-03-19 01:45:00,
2013-03-18 22:00:00,33.1,31.8,30.03,East,90,2.0,10.0,95,0.00,,---,0.00,VWS V14.01,2013-03-19 02:00:00,
2013-03-18 22:15:00,33.2,31.9,30.03,ENE,68,2.0,9.0,95,0.00,,---,0.00,VWS V14.01,2013-03-19 02:15:00,
2013-03-18 22:30:00,33.4,32.1,30.02,East,90,2.0,8.0,95,0.01,,---,0.01,VWS V14.01,2013-03-19 02:30:00,
2013-03-18 22:45:00,33.5,32.2,30.02,East,90,2.0,6.0,95,0.03,,---,0.03,VWS V14.01,2013-03-19 02:45:00,
2013-03-18 23:00:00,33.5,32.2,30.00,East,90,2.0,9.0,95,0.04,,---,0.04,VWS V14.01,2013-03-19 03:00:00,
2013-03-18 23:15:00,33.7,32.4,30.00,East,90,3.0,9.0,95,0.06,,---,0.06,VWS V14.01,2013-03-19 03:15:00,
2013-03-18 23:30:00,33.7,32.4,29.98,East,90,2.0,12.0,95,0.08,,---,0.08,VWS V14.01,2013-03-19 03:30:00,
2013-03-18 23:45:00,33.7,32.4,29.97,East,90,2.0,10.0,95,0.07,,---,0.08,VWS V14.01,2013-03-19 03:45:00,